Location: Blackwater Beach
(38.5801°N, 75.1577°W)
Time: 03:25:22
(UTC+00:00)

Cosmos 2297 Rocket - Pass Details

Date: 18 May 2026
Orbit: 838 x 842 km, 71.0° (Epoch: 9 June)

Event Time Altitude Azimuth Distance (km) Brightness Sun altitude
Exits shadow 05:43:51 13° 288° (WNW) 2,238 4.4 -30.8°
Maximum altitude 05:45:40 15° 310° (NW) 2,121 4.5 -30.8°
Drops below altitude 10° 05:48:49 10° 344° (NNW) 2,461 5.3 -30.6°
Sets 05:52:27 0° 7° (N) 3,400 6.5 -30.4°
